Tiempo cada hora Allepuz

Hoy, 2 Agosto, Lunes

Tiempo Temperatura Precipitaciones Viento Presión Humedad
00:00 +12°C° 0 mm 1 mps 637 mmHg 69%
01:00 +12°C° 0 mm 1 mps 637 mmHg 68%
02:00 +12°C° 0 mm 1 mps 637 mmHg 67%
03:00 +11°C° 0 mm 0 mps 637 mmHg 65%
04:00 +12°C° 0 mm 1 mps 637 mmHg 64%
05:00 +13°C° 0 mm 1 mps 637 mmHg 63%
06:00 +13°C° 0 mm 1 mps 638 mmHg 62%
07:00 +15°C° 0 mm 1 mps 638 mmHg 58%
08:00 +16°C° 0 mm 2 mps 639 mmHg 54%
09:00 +18°C° 0 mm 2 mps 639 mmHg 50%
10:00 +19°C° 0.1 mm 3 mps 639 mmHg 47%
11:00 +20°C° 0.1 mm 3 mps 640 mmHg 44%
12:00 +21°C° 0.1 mm 4 mps 640 mmHg 41%
13:00 +21°C° 0.3 mm 4 mps 640 mmHg 44%
14:00 +20°C° 0.3 mm 4 mps 639 mmHg 46%
15:00 +20°C° 0.3 mm 5 mps 639 mmHg 48%
16:00 +19°C° 0.4 mm 4 mps 639 mmHg 53%
17:00 +18°C° 0.4 mm 3 mps 639 mmHg 57%
18:00 +18°C° 0.4 mm 3 mps 639 mmHg 62%
19:00 +16°C° 0.2 mm 3 mps 639 mmHg 67%
20:00 +14°C° 0.2 mm 3 mps 639 mmHg 72%
21:00 +13°C° 0.2 mm 3 mps 639 mmHg 76%
22:00 +14°C° 0 mm 2 mps 639 mmHg 75%
23:00 +14°C° 0 mm 2 mps 639 mmHg 74%

Mañana, 3 Agosto, Martes

Tiempo Temperatura Precipitaciones Viento Presión Humedad
00:00 +13°C° 0 mm 2 mps 639 mmHg 73%
01:00 +13°C° 0 mm 2 mps 638 mmHg 72%
02:00 +13°C° 0 mm 2 mps 638 mmHg 71%
03:00 +13°C° 0 mm 2 mps 638 mmHg 69%
04:00 +13°C° 0 mm 2 mps 638 mmHg 68%
05:00 +14°C° 0 mm 2 mps 638 mmHg 66%
06:00 +14°C° 0 mm 1 mps 639 mmHg 64%
07:00 +16°C° 0 mm 2 mps 639 mmHg 56%
08:00 +19°C° 0 mm 2 mps 640 mmHg 49%
09:00 +21°C° 0 mm 2 mps 641 mmHg 41%
10:00 +23°C° 0 mm 2 mps 641 mmHg 37%
11:00 +24°C° 0 mm 3 mps 641 mmHg 33%
12:00 +26°C° 0 mm 4 mps 641 mmHg 29%
13:00 +27°C° 0 mm 4 mps 641 mmHg 27%
14:00 +27°C° 0 mm 5 mps 640 mmHg 25%
15:00 +28°C° 0 mm 5 mps 640 mmHg 24%
16:00 +27°C° 0 mm 5 mps 640 mmHg 27%
17:00 +26°C° 0 mm 5 mps 639 mmHg 31%
18:00 +25°C° 0 mm 5 mps 639 mmHg 34%
19:00 +22°C° 0 mm 4 mps 639 mmHg 40%
20:00 +20°C° 0 mm 3 mps 639 mmHg 46%
21:00 +19°C° 0 mm 3 mps 639 mmHg 52%
22:00 +18°C° 0 mm 2 mps 639 mmHg 53%
23:00 +18°C° 0 mm 2 mps 639 mmHg 54%

Pasado mañana, 4 Agosto, Miércoles

Tiempo Temperatura Precipitaciones Viento Presión Humedad
00:00 +18°C° 0 mm 2 mps 639 mmHg 55%
01:00 +19°C° 0 mm 1 mps 638 mmHg 57%
02:00 +18°C° 0 mm 1 mps 638 mmHg 58%
03:00 +18°C° 0 mm 1 mps 637 mmHg 60%
04:00 +18°C° 0 mm 1 mps 637 mmHg 61%
05:00 +18°C° 0 mm 1 mps 638 mmHg 62%
06:00 +16°C° 0 mm 1 mps 638 mmHg 64%
07:00 +18°C° 0 mm 1 mps 638 mmHg 59%
08:00 +19°C° 0 mm 2 mps 639 mmHg 54%
09:00 +20°C° 0 mm 2 mps 639 mmHg 49%
10:00 +21°C° 0 mm 2 mps 640 mmHg 44%
11:00 +24°C° 0 mm 3 mps 640 mmHg 39%
12:00 +25°C° 0 mm 3 mps 640 mmHg 34%
13:00 +25°C° 0.1 mm 4 mps 640 mmHg 37%
14:00 +23°C° 0.1 mm 4 mps 640 mmHg 41%
15:00 +22°C° 0.1 mm 4 mps 640 mmHg 44%
16:00 +22°C° 0 mm 4 mps 640 mmHg 44%
17:00 +22°C° 0 mm 4 mps 640 mmHg 44%
18:00 +22°C° 0 mm 3 mps 640 mmHg 43%
19:00 +20°C° 0 mm 3 mps 640 mmHg 50%
20:00 +19°C° 0 mm 3 mps 640 mmHg 57%
21:00 +17°C° 0 mm 2 mps 640 mmHg 64%
22:00 +16°C° 0 mm 2 mps 640 mmHg 67%
23:00 +15°C° 0 mm 2 mps 640 mmHg 70%

5 Agosto, Jueves

Tiempo Temperatura Precipitaciones Viento Presión Humedad
00:00 +15°C° 0 mm 1 mps 640 mmHg 73%
01:00 +15°C° 0 mm 1 mps 639 mmHg 77%
02:00 +14°C° 0 mm 2 mps 639 mmHg 80%
03:00 +14°C° 0 mm 2 mps 639 mmHg 83%
04:00 +15°C° 0 mm 2 mps 639 mmHg 83%
05:00 +15°C° 0 mm 2 mps 639 mmHg 84%
06:00 +15°C° 0 mm 2 mps 639 mmHg 84%
07:00 +18°C° 0 mm 2 mps 640 mmHg 69%
08:00 +20°C° 0 mm 2 mps 640 mmHg 54%
09:00 +22°C° 0 mm 3 mps 641 mmHg 38%
10:00 +25°C° 0 mm 4 mps 641 mmHg 33%
11:00 +27°C° 0 mm 4 mps 641 mmHg 28%
12:00 +28°C° 0 mm 5 mps 641 mmHg 22%
13:00 +29°C° 0 mm 5 mps 641 mmHg 22%
14:00 +30°C° 0 mm 5 mps 641 mmHg 21%
15:00 +30°C° 0 mm 6 mps 641 mmHg 20%
16:00 +29°C° 0 mm 5 mps 640 mmHg 23%
17:00 +28°C° 0 mm 5 mps 640 mmHg 26%
18:00 +28°C° 0 mm 4 mps 639 mmHg 29%
19:00 +25°C° 0 mm 4 mps 639 mmHg 37%
20:00 +22°C° 0 mm 3 mps 638 mmHg 45%
21:00 +20°C° 0 mm 2 mps 638 mmHg 54%
22:00 +20°C° 0 mm 1 mps 638 mmHg 53%
23:00 +20°C° 0 mm 1 mps 638 mmHg 53%

6 Agosto, Viernes

Tiempo Temperatura Precipitaciones Viento Presión Humedad
00:00 +20°C° 0 mm 1 mps 637 mmHg 52%
01:00 +19°C° 0 mm 1 mps 637 mmHg 53%
02:00 +19°C° 0 mm 1 mps 637 mmHg 54%
03:00 +18°C° 0 mm 1 mps 636 mmHg 55%
04:00 +18°C° 0 mm 1 mps 636 mmHg 55%
05:00 +18°C° 0 mm 1 mps 636 mmHg 56%
06:00 +17°C° 0 mm 2 mps 636 mmHg 56%
07:00 +19°C° 0 mm 2 mps 637 mmHg 50%
08:00 +21°C° 0 mm 3 mps 637 mmHg 45%
09:00 +23°C° 0 mm 4 mps 638 mmHg 39%
10:00 +26°C° 0 mm 5 mps 638 mmHg 34%
11:00 +28°C° 0 mm 6 mps 638 mmHg 29%
12:00 +29°C° 0 mm 6 mps 638 mmHg 24%
13:00 +30°C° 0 mm 7 mps 638 mmHg 21%
14:00 +30°C° 0 mm 7 mps 638 mmHg 19%
15:00 +32°C° 0 mm 8 mps 638 mmHg 17%
16:00 +29°C° 0 mm 7 mps 637 mmHg 24%
17:00 +28°C° 0 mm 6 mps 637 mmHg 30%
18:00 +26°C° 0 mm 5 mps 636 mmHg 36%
19:00 +23°C° 0 mm 5 mps 636 mmHg 48%
20:00 +21°C° 0 mm 4 mps 635 mmHg 61%
21:00 +19°C° 0 mm 3 mps 635 mmHg 74%
22:00 +19°C° 0 mm 3 mps 635 mmHg 76%
23:00 +18°C° 0 mm 3 mps 635 mmHg 78%

7 Agosto, Sábado

Tiempo Temperatura Precipitaciones Viento Presión Humedad
00:00 +18°C° 0 mm 3 mps 634 mmHg 80%
01:00 +18°C° 0 mm 3 mps 634 mmHg 73%
02:00 +18°C° 0 mm 3 mps 634 mmHg 66%
03:00 +18°C° 0 mm 3 mps 634 mmHg 59%
04:00 +17°C° 0 mm 2 mps 634 mmHg 59%
05:00 +17°C° 0 mm 2 mps 634 mmHg 58%
06:00 +16°C° 0 mm 2 mps 634 mmHg 57%
07:00 +17°C° 0 mm 2 mps 635 mmHg 54%
08:00 +18°C° 0 mm 3 mps 635 mmHg 51%
09:00 +19°C° 0 mm 3 mps 636 mmHg 48%
10:00 +21°C° 0 mm 4 mps 636 mmHg 42%
11:00 +23°C° 0 mm 4 mps 637 mmHg 36%
12:00 +25°C° 0 mm 4 mps 637 mmHg 30%
13:00 +26°C° 0 mm 5 mps 637 mmHg 26%
14:00 +27°C° 0 mm 5 mps 638 mmHg 22%
15:00 +28°C° 0 mm 5 mps 638 mmHg 19%
16:00 +27°C° 0 mm 5 mps 638 mmHg 21%
17:00 +27°C° 0 mm 4 mps 638 mmHg 22%
18:00 +26°C° 0 mm 4 mps 638 mmHg 24%
19:00 +22°C° 0 mm 4 mps 638 mmHg 34%
20:00 +20°C° 0 mm 3 mps 638 mmHg 44%
21:00 +17°C° 0 mm 3 mps 639 mmHg 54%
22:00 +16°C° 0 mm 3 mps 639 mmHg 57%
23:00 +15°C° 0 mm 2 mps 639 mmHg 60%
Mostrar más

Necesitamos Su Consentimiento

Meteoprog y nuestros Proveedores de Servicios pueden almacenar y acceder a sus datos personales como cookies, identificadores de dispositivo u otras tecnologías similares de su dispositivo y procesar dichos datos para personalizar contenido y anuncios, además de ofrecer funciones de redes sociales y analizar el tráfico.

  • Almacenar y/o acceder a información en su dispositivo

    Se puede almacenar o acceder a cookies, identificadores de dispositivo u otra información de su dispositivo para los fines anteriormente indicados.

  • Anuncios y contenido personalizados, medición de anuncios y contenido, percepciones del público, y desarrollo de productos

    Los anuncios y el contenido pueden personalizarse en base a su perfil. Se pueden añadir más datos para personalizar mejor los anuncios y contenidos. Se puede medir el rendimiento de los anuncios y contenidos. Se puede obtener la percepción sobre el público que ha visto los anuncios y contenidos. Dichos datos pueden usarse para desarrollar o mejorar la experiencia del usuario, sistemas y software.

Al hacer clic en ‘Estoy De Acuerdo’ usted permitirá el uso de las cookies, identificadores de dispositivo, balizas web u otras tecnologías similares indicadas. Su configuración puede cambiarse desde el navegador de su dispositivo.

Para ciertos fines, los intereses legítimos pueden ser considerados por encima del consentimiento. Puede leer más sobre ello en nuestra Política de Privacidad y Cookies.